Theta_e
352 350 352 350 350 352 352 353 353 353 352 352 352 352 353 353 353 354 354 354 353 353 354 353 353 353 354 354 353 353 352 352 353 352 352 351 352 352 351 351 351 350 350 349 349 349 348 346 345 344 344 344 348 348 347 347 347 347 346 345 345 345 345 345 344 344 343 342 341 342 341 339 340 338 338 337 338 338 337 337 337 336 337 338 339
348 351 352 353 349 352 352 353 353 352 352 352 352 353 353 353 354 354 354 354 354 354 354 353 353 353 353 352 352 351 351 351 352 351 351 351 351 351 351 350 350 350 349 349 347 346 346 345 344 344 343 347 347 347 346 346 346 346 345 345 345 345 346 345 344 344 343 342 342 341 340 340 340 339 339 338 338 338 338 338 338 336 337 339 339
350 351 352 352 351 353 352 353 352 351 351 352 353 353 353 354 354 354 354 354 354 353 353 353 353 352 352 351 351 351 352 351 351 350 350 350 350 350 350 349 349 348 347 345 346 346 346 345 345 345 347 347 347 346 347 346 345 345 345 344 344 343 343 344 344 343 342 342 341 341 340 340 340 340 339 338 337 336 335 336 337 337 336 337 338
348 350 351 350 351 353 352 352 351 351 352 353 353 353 353 354 354 353 353 354 354 353 353 352 352 352 352 351 351 351 351 350 350 350 350 350 350 349 349 348 347 346 346 346 346 345 345 346 347 347 347 347 347 347 346 345 345 344 344 344 344 343 343 342 342 341 341 342 341 340 339 337 339 338 338 335 333 333 334 334 335 336 335 335 336
352 350 352 352 351 353 352 351 351 352 353 353 353 353 353 353 354 353 353 353 353 353 352 352 351 351 351 350 351 350 350 349 349 350 350 349 348 348 347 346 346 346 345 346 345 345 346 347 347 347 347 347 346 346 345 344 343 343 343 343 342 341 342 341 341 340 339 338 338 339 336 334 338 334 334 333 333 335 331 330 331 332 333 332 333
352 348 352 350 349 353 353 352 352 352 352 352 352 353 353 353 353 353 353 353 353 352 352 352 351 351 350 351 351 349 349 350 350 350 349 348 348 347 347 346 346 345 344 345 347 347 347 346 347 348 347 347 346 345 344 344 344 343 342 342 341 341 340 339 339 338 338 337 340 338 335 336 337 334 335 336 336 334 332 332 330 328 333 334 334
351 351 347 347 349 352 353 352 352 352 352 352 353 353 352 352 352 352 352 352 352 351 351 351 351 350 351 351 351 350 350 349 349 348 347 347 347 346 346 347 346 346 344 347 347 347 347 348 347 347 346 346 346 344 344 343 343 343 342 342 342 342 340 339 338 338 337 341 338 337 337 336 335 335 334 334 336 335 334 335 334 335 335 335 334
350 349 348 347 350 352 352 352 352 352 352 352 352 352 352 352 352 351 351 352 351 351 350 350 350 351 351 351 351 350 350 349 348 347 347 346 346 346 346 346 346 345 347 347 347 348 348 348 347 347 346 346 345 345 343 343 343 343 342 341 341 341 340 338 336 335 336 338 338 337 337 335 336 336 336 336 334 336 336 336 335 336 336 336 335
347 347 347 348 351 351 352 352 351 351 352 352 352 352 352 352 352 351 351 351 351 351 350 350 349 351 350 350 351 350 349 348 348 348 347 346 346 347 347 346 346 347 348 347 348 348 348 347 349 347 347 347 345 344 343 342 342 342 342 342 341 341 339 338 337 337 341 338 337 336 336 335 335 336 336 336 335 335 334 333 334 333 333 332 333
347 346 348 350 349 353 352 352 351 352 352 352 352 352 352 352 352 352 351 351 351 350 350 350 351 351 350 350 350 350 349 349 348 347 347 346 346 346 347 346 345 347 347 347 347 348 347 347 347 347 347 346 346 344 343 342 342 342 342 342 342 340 339 338 338 341 339 338 337 336 336 337 335 336 336 337 337 334 331 330 331 331 330 330 332
349 346 348 350 349 353 352 352 351 352 352 352 351 352 352 352 352 351 351 351 351 350 350 350 351 351 350 350 350 350 350 350 349 347 347 346 345 345 345 344 344 347 347 346 347 347 347 347 346 346 347 346 346 344 343 342 342 343 343 343 342 340 339 339 341 338 337 335 334 335 334 335 337 337 338 337 337 335 332 331 329 328 332 332 331
350 348 350 350 355 352 351 351 351 352 352 351 351 351 352 352 352 351 350 350 350 350 349 350 351 350 350 349 349 349 349 349 349 348 347 346 345 345 344 344 345 347 346 346 346 346 346 345 345 345 345 345 345 345 344 343 343 343 343 342 341 340 338 339 335 337 337 336 335 335 333 333 335 334 335 335 336 335 334 331 330 328 331 333 332
350 349 351 351 351 352 351 350 351 351 352 351 351 352 352 352 352 351 350 350 350 349 349 349 350 350 350 349 349 349 349 349 348 347 347 346 346 345 345 344 347 347 346 345 345 345 345 343 342 343 345 345 345 345 344 343 343 343 343 342 341 340 339 338 334 336 335 336 335 333 333 336 337 335 335 334 333 334 333 332 333 333 332 332 331
351 351 351 350 351 352 351 350 351 352 351 351 351 350 351 350 351 350 349 350 350 351 350 350 350 350 349 348 348 348 348 348 348 347 347 347 346 345 344 344 347 346 345 345 345 343 342 341 342 344 344 345 345 346 344 343 343 343 342 342 341 339 338 339 340 336 337 335 336 334 336 337 337 336 336 334 334 335 334 332 330 329 328 328 328
349 350 351 348 348 349 353 351 350 351 352 351 350 349 349 350 349 348 350 349 350 350 350 350 350 350 350 349 349 348 347 348 348 347 346 346 346 346 345 345 345 345 345 345 344 342 341 342 344 344 344 345 346 346 346 344 343 343 342 342 341 340 338 333 332 335 334 334 335 336 337 339 337 337 336 334 333 332 335 333 330 328 328 328 327
354 353 352 349 349 349 350 353 350 351 351 351 349 349 348 349 350 350 350 350 350 350 351 351 349 349 348 348 348 348 348 348 348 347 345 345 345 345 345 345 345 344 344 344 343 341 342 343 344 345 345 344 345 346 346 344 344 343 343 342 340 338 340 341 334 334 334 335 336 337 337 339 337 336 336 335 332 330 331 331 331 330 330 327 326
354 354 352 349 349 348 351 350 352 351 351 351 350 349 348 349 350 350 350 350 350 350 350 350 348 348 348 348 348 347 347 348 347 347 345 344 344 344 343 342 342 343 344 343 342 341 342 344 345 345 345 344 345 346 346 345 344 343 343 342 340 339 339 341 333 334 334 335 335 334 337 337 336 334 335 334 331 332 330 330 330 329 329 328 327
353 354 350 348 351 351 349 352 350 350 351 351 351 350 348 348 349 349 349 350 350 350 349 349 349 349 349 349 348 348 347 347 347 346 346 345 343 343 342 341 341 343 343 342 341 341 343 345 345 345 345 345 345 346 345 343 344 344 343 342 340 339 338 339 335 336 336 335 335 336 338 337 334 333 334 333 331 332 332 328 328 329 329 329 329
351 352 346 343 347 347 345 344 344 344 346 349 351 352 350 350 350 350 350 350 349 349 349 350 349 349 348 348 349 348 347 347 347 346 346 346 344 342 342 341 342 343 342 342 341 341 344 345 345 345 346 346 346 345 344 344 344 343 342 341 341 338 338 339 335 336 337 337 336 337 337 336 333 333 335 334 330 330 333 331 329 330 329 328 328
350 349 342 342 344 345 345 345 344 347 348 349 350 353 350 350 350 350 350 349 349 349 349 349 348 349 348 348 349 350 349 349 347 347 346 346 344 343 342 341 341 342 342 342 341 341 343 344 345 345 345 345 345 344 344 343 343 343 342 342 341 338 339 336 334 335 335 335 336 336 337 335 332 332 335 332 331 328 329 327 328 332 330 329 329
338 344 344 343 344 344 344 347 347 348 348 349 350 346 347 348 349 349 349 349 348 348 348 347 348 348 349 349 349 352 351 352 349 347 346 346 345 344 342 341 341 342 342 342 341 341 342 343 345 345 344 344 344 343 343 343 342 342 342 341 341 342 338 335 335 336 336 335 337 335 334 334 333 330 329 332 331 330 329 328 327 328 328 329 328
338 340 345 349 347 346 350 347 348 347 347 342 343 347 346 347 347 349 349 349 348 348 349 349 349 350 347 347 348 346 350 345 350 348 348 346 346 345 344 342 342 341 342 342 341 341 342 342 343 344 344 343 343 343 344 343 342 342 342 343 340 337 337 338 336 334 335 336 336 335 334 333 333 332 329 330 330 330 329 329 327 327 327 326 327
339 342 344 347 349 346 346 347 347 347 349 346 342 344 345 347 347 348 347 347 348 349 348 348 350 349 348 347 345 346 346 347 352 348 349 345 345 345 344 342 342 341 342 342 340 341 342 342 342 343 344 343 346 339 340 341 343 342 343 343 337 337 339 336 336 335 333 334 336 335 333 333 333 333 332 332 332 331 329 327 328 328 326 326 327
339 342 343 345 348 344 344 348 348 349 348 347 346 345 347 349 346 347 348 347 347 346 346 347 347 347 346 347 344 346 346 348 349 349 349 347 346 345 344 343 342 341 341 341 341 341 342 341 341 341 345 344 341 339 339 340 342 343 342 338 336 337 337 338 333 335 336 334 335 334 333 333 333 332 333 332 332 331 330 328 328 328 327 327 328
339 342 342 343 343 344 347 348 348 347 348 349 348 349 351 348 347 345 346 345 345 345 346 347 348 347 347 347 344 344 344 347 347 346 345 347 346 346 345 341 341 340 340 340 338 334 338 334 337 340 341 340 340 341 341 340 342 340 339 338 338 338 337 338 335 333 335 336 335 334 333 333 333 332 332 332 332 332 330 329 328 328 328 327 327
338 336 338 341 343 344 342 340 338 346 348 349 349 350 351 348 345 345 345 345 345 345 345 347 347 347 345 344 345 345 345 347 347 345 345 346 342 341 340 339 337 336 342 340 338 335 337 336 337 336 339 341 342 343 341 340 338 338 339 339 338 338 338 336 336 337 336 336 335 334 333 333 333 332 332 332 333 331 329 329 328 328 328 328 328
334 336 340 342 342 343 344 344 337 345 349 351 351 350 349 347 345 344 344 344 345 345 344 346 348 347 345 345 344 342 341 344 347 346 344 346 344 341 338 339 338 334 336 337 337 338 336 335 335 336 337 339 340 341 340 338 338 335 337 335 337 338 339 338 336 338 335 335 336 337 333 333 333 332 331 331 329 330 330 329 329 330 329 329 328
338 337 339 340 342 342 340 337 340 345 347 351 351 350 350 348 348 345 345 345 344 343 344 346 349 348 348 347 344 343 341 341 345 345 345 344 341 344 342 338 337 335 337 337 337 337 336 336 337 335 336 338 338 339 338 338 339 339 336 337 336 337 337 336 338 338 337 338 336 335 333 333 332 332 331 331 330 330 330 331 330 330 329 329 330
333 336 337 337 340 341 339 335 337 342 349 351 350 349 348 347 348 345 343 343 344 344 345 349 348 347 349 349 346 344 342 342 343 342 343 342 341 343 341 338 337 335 336 334 336 338 338 338 337 337 339 340 339 339 339 338 340 340 336 335 334 335 337 338 338 337 339 337 338 337 335 334 332 332 331 331 331 331 331 330 330 332 330 330 330
332 335 338 338 339 342 343 343 344 345 349 351 349 348 346 345 349 348 344 344 343 345 348 346 351 350 350 351 348 345 344 342 343 341 340 342 342 344 343 340 338 335 336 337 338 338 338 338 337 337 336 340 340 342 340 341 338 338 336 334 336 335 337 337 337 337 337 339 339 339 337 334 334 333 332 332 332 331 332 330 331 332 330 331 331
333 335 339 340 339 341 343 346 349 346 348 346 346 346 348 346 346 348 348 344 343 345 345 346 350 351 351 352 349 347 345 343 343 342 342 340 342 343 342 342 340 340 339 337 339 340 340 339 340 341 341 342 341 341 340 342 340 339 336 336 337 338 338 339 338 338 337 339 339 340 336 337 335 334 334 333 333 332 333 332 332 332 332 331 331
332 336 341 342 341 341 342 346 349 348 349 347 347 347 346 347 347 346 348 348 346 345 345 346 350 350 351 352 352 348 347 345 345 342 343 342 341 341 343 344 345 343 344 343 342 342 342 341 342 343 344 344 343 342 343 341 340 337 336 335 338 339 337 337 338 338 339 339 341 340 340 338 337 336 335 334 334 334 333 333 333 333 332 333 333
336 339 341 341 340 340 341 341 345 341 341 348 348 348 348 347 346 347 348 348 348 347 346 346 352 353 353 353 353 352 349 345 346 346 344 342 343 344 343 346 345 346 348 346 344 344 344 344 345 345 343 344 344 344 340 343 342 340 338 338 341 338 339 337 338 339 339 339 339 340 341 340 341 338 337 335 335 335 335 335 335 335 334 335 335
334 336 340 339 340 340 337 338 341 341 341 341 346 346 349 348 348 348 349 349 349 348 349 351 352 352 353 353 352 351 350 348 344 346 343 343 344 344 344 344 345 346 347 345 343 343 343 344 343 343 342 342 341 343 342 340 339 339 339 339 342 343 343 341 338 339 339 340 340 340 340 339 340 341 338 337 336 335 336 336 336 336 335 335 336
333 335 337 338 340 340 339 336 337 338 339 340 341 341 341 350 348 349 350 351 349 348 349 349 350 351 352 352 353 352 352 349 347 345 345 342 343 343 343 344 347 346 343 344 346 347 347 345 343 342 342 342 340 340 340 341 339 338 339 344 341 340 344 341 341 339 338 341 342 340 341 339 340 341 339 340 338 337 336 336 337 337 337 337 337
336 335 335 337 338 341 340 338 339 337 337 338 339 341 339 348 351 347 350 351 349 347 349 349 349 349 350 351 352 352 352 351 350 347 345 343 341 342 341 346 347 346 343 344 346 347 347 345 347 346 342 340 340 340 341 339 340 340 342 344 344 344 343 343 343 341 342 341 341 342 342 341 342 341 341 340 341 339 338 337 337 337 338 338 338
339 337 338 339 339 338 339 338 337 337 338 339 340 339 340 342 346 347 348 350 349 348 348 350 350 350 349 349 352 352 352 351 352 351 351 349 344 345 343 348 347 345 345 349 349 349 349 345 347 348 344 344 341 336 338 340 340 341 342 341 344 345 345 345 345 345 341 343 343 341 342 341 342 340 343 343 343 342 341 339 338 338 337 338 338
341 342 343 340 340 338 338 338 340 340 341 340 339 339 339 341 343 344 348 349 350 349 350 349 349 349 349 349 351 352 352 351 351 351 353 351 349 347 347 349 346 347 349 350 351 350 350 349 344 343 341 341 340 336 339 339 338 338 341 342 345 345 345 346 346 345 345 342 343 343 343 344 342 341 341 343 343 344 344 340 340 339 339 339 339
341 342 343 344 338 338 338 338 338 339 341 340 340 339 340 340 342 346 347 348 350 350 350 349 349 350 349 350 350 351 352 352 352 352 351 351 350 350 350 351 348 347 349 348 347 349 350 349 347 344 344 342 345 343 343 342 341 340 340 342 345 347 347 347 347 345 346 345 343 343 342 345 345 344 344 344 343 345 344 346 341 340 339 340 339
343 342 342 342 337 337 340 339 340 340 341 340 339 337 340 338 336 341 344 346 348 347 349 348 349 348 348 349 349 351 351 352 352 352 352 351 350 351 351 351 349 348 346 345 344 345 348 349 348 346 347 345 345 345 345 343 342 342 342 344 345 346 347 347 348 347 347 346 345 345 344 344 346 346 345 344 343 344 345 345 344 343 342 341 340
343 341 342 341 340 338 340 339 341 342 341 340 338 337 336 333 338 341 343 345 345 347 347 348 348 348 348 347 349 349 350 351 352 352 351 350 349 351 351 350 350 347 347 346 346 348 350 349 349 348 345 343 342 343 345 345 341 340 342 344 345 346 347 345 345 346 345 347 346 344 344 345 345 345 346 346 345 345 344 346 346 346 344 345 344
341 342 342 342 341 341 341 342 342 343 342 342 341 340 338 338 343 343 343 342 343 344 343 346 348 347 347 349 350 350 349 350 351 352 352 353 350 349 350 350 350 349 350 348 349 349 349 348 348 346 347 344 341 342 346 342 336 333 333 335 339 342 346 345 344 345 346 347 347 347 347 345 343 345 347 347 347 345 345 347 348 347 346 346 346
341 340 342 342 343 343 342 343 344 343 343 342 343 343 345 347 346 344 344 342 346 347 344 346 349 347 350 350 351 351 350 349 350 350 351 352 351 350 350 349 349 349 348 348 349 348 348 348 348 345 343 344 342 345 348 346 336 336 339 335 329 330 337 340 343 342 343 344 345 345 347 344 342 345 346 347 345 346 345 346 346 348 349 348 347
340 340 341 342 342 342 343 342 343 343 342 343 344 347 347 347 348 348 348 346 344 347 348 349 349 348 348 351 351 351 350 349 349 348 349 350 351 349 349 349 350 350 348 347 347 346 349 348 347 347 346 340 337 340 346 348 343 338 329 327 331 331 324 327 336 341 341 342 343 344 344 346 347 346 348 347 346 346 346 347 346 348 348 349 349
340 340 340 341 341 342 342 343 343 344 344 344 344 347 346 344 345 346 348 347 347 346 345 343 346 346 347 349 349 350 349 348 348 348 347 349 351 350 349 349 349 349 348 346 347 347 347 348 347 346 345 342 336 339 342 346 345 345 338 332 330 326 324 329 331 335 339 339 339 340 344 343 347 348 347 347 346 347 347 347 348 347 349 349 350
339 341 343 341 341 340 343 343 344 344 343 343 345 344 344 342 342 340 338 341 339 340 339 340 342 344 343 348 349 348 348 348 347 348 346 347 348 350 349 348 348 348 347 346 347 348 348 347 346 346 344 346 342 338 337 342 344 346 344 341 337 330 328 332 328 325 340 342 341 338 341 346 346 346 344 343 343 344 347 348 350 350 350 349 348
339 342 344 343 342 341 342 343 343 343 344 344 344 343 343 343 343 342 342 342 339 341 344 344 345 345 347 348 348 350 348 348 349 347 347 347 348 349 349 348 347 348 347 347 345 344 341 342 346 345 344 344 344 338 338 338 341 342 343 343 343 342 337 332 329 332 328 338 344 339 339 339 343 341 340 339 343 344 348 348 348 348 349 350 349
340 342 343 342 341 340 340 341 342 342 344 344 344 343 342 342 342 344 343 342 341 340 345 346 347 346 345 347 347 348 348 347 347 346 346 347 347 347 348 348 347 348 346 345 346 347 346 346 347 347 346 345 343 340 338 338 335 336 341 342 343 342 338 339 336 330 329 327 332 336 338 342 343 345 342 340 339 342 346 349 347 347 347 347 350
339 342 342 342 342 341 341 341 341 342 343 344 343 343 343 342 342 344 341 341 342 341 342 344 344 346 345 346 346 346 346 346 346 347 345 345 346 347 347 346 347 346 344 344 345 345 347 348 348 345 344 345 344 343 341 338 338 335 337 339 339 338 338 339 336 336 330 329 329 331 334 340 343 344 344 344 343 342 345 345 346 347 348 349 349
339 342 343 343 341 340 340 340 340 341 343 344 343 344 344 343 341 343 343 342 342 342 342 342 343 345 344 345 345 344 345 345 345 344 345 343 345 347 347 346 347 346 344 344 343 344 346 346 346 348 346 344 345 344 341 340 340 340 338 338 337 337 337 336 337 335 334 334 328 329 333 334 333 339 346 343 342 341 342 346 347 346 346 347 348
340 342 342 342 340 340 340 339 340 342 342 343 343 343 344 343 341 340 341 343 343 342 341 342 342 343 342 342 344 345 346 346 346 346 345 344 345 347 347 346 347 346 344 344 343 343 342 343 343 345 346 344 342 344 344 344 342 341 342 340 338 337 335 334 334 336 335 334 332 331 334 335 335 334 339 342 342 339 339 343 343 345 348 348 347
Wind_Speed
11 13 12 11 6 12 14 13 13 12 12 13 13 13 14 15 15 15 15 15 15 14 14 14 13 13 13 12 11 11 11 13 14 13 13 13 13 13 13 13 14 14 14 14 14 13 13 12 12 12 12 12 14 14 15 15 15 15 15 15 16 16 16 16 17 17 16 17 17 16 15 16 17 16 15 14 13 13 12 9 10 11 11 13 15
12 12 12 12 8 14 14 14 14 12 11 12 13 13 14 14 13 13 14 15 14 14 14 13 13 13 13 12 12 12 12 13 14 13 13 13 13 13 13 13 14 14 14 13 13 13 13 13 13 13 13 15 14 15 15 16 15 15 14 14 14 15 15 16 16 15 16 17 17 17 17 17 16 15 15 14 14 13 12 14 13 11 11 15 16
12 10 11 13 10 14 14 14 14 13 12 12 12 12 12 12 12 13 13 13 13 13 13 13 13 13 13 14 14 14 12 13 13 13 13 13 13 12 12 12 12 14 14 14 14 14 14 14 14 15 15 15 16 16 16 15 15 14 13 13 13 13 14 14 15 14 14 15 18 19 18 18 16 15 15 14 14 13 13 13 13 13 12 15 15
13 10 11 11 11 15 15 14 14 14 13 12 11 12 12 12 12 12 12 12 12 12 13 13 14 14 15 14 15 15 14 13 11 13 13 13 13 12 12 13 13 14 15 15 15 15 15 15 16 16 16 16 16 15 14 13 13 14 14 13 14 14 13 13 12 10 10 13 13 11 10 12 13 14 14 13 12 13 14 13 13 14 14 13 15
13 12 10 12 14 15 14 15 14 14 13 13 12 12 12 12 11 11 11 12 12 12 14 14 14 14 15 15 14 14 15 14 13 13 13 12 13 13 13 14 15 15 15 15 15 15 17 16 16 16 16 15 15 14 14 13 13 13 13 13 13 13 13 13 11 10 10 9 8 9 9 11 10 14 13 12 13 15 11 12 11 11 11 10 12
11 12 12 10 12 14 13 14 14 14 14 14 14 13 12 12 12 12 12 12 13 13 15 14 14 14 15 14 14 14 14 14 13 13 12 12 13 14 14 15 15 15 15 15 15 16 16 16 16 16 15 15 14 14 13 13 13 13 13 13 12 13 13 11 10 10 9 8 6 7 8 10 9 9 13 14 13 13 14 15 12 10 13 14 12
11 11 12 12 11 13 12 13 14 14 14 14 14 13 13 13 13 13 13 14 14 14 15 15 14 15 13 13 13 14 14 13 13 13 12 12 13 14 15 15 14 14 14 16 15 15 16 16 15 15 15 14 13 13 13 12 12 12 12 12 12 12 11 10 9 8 8 6 6 7 7 10 10 8 12 12 14 13 13 14 14 13 12 12 12
9 8 10 11 11 14 13 13 14 14 14 14 13 13 13 13 13 13 14 14 15 15 15 15 16 13 12 12 11 13 13 13 13 13 12 12 12 14 14 14 14 14 16 15 14 15 15 16 15 14 14 14 13 12 12 11 11 11 11 12 12 11 9 8 6 3 4 5 4 6 7 10 9 9 11 12 13 15 14 13 12 13 12 12 11
9 9 10 11 13 16 13 13 14 15 14 13 13 13 13 14 14 14 15 15 15 14 15 15 14 12 12 12 11 13 13 12 12 13 13 12 11 12 13 14 13 15 15 14 14 14 15 14 14 14 13 12 11 11 11 11 11 11 11 11 11 10 8 7 6 8 4 6 6 7 8 9 9 9 10 10 10 11 11 12 14 11 11 11 11
9 10 10 10 13 15 13 13 13 14 14 13 13 13 14 14 14 14 15 15 16 15 15 14 14 13 12 11 13 13 13 12 13 12 13 12 12 12 12 12 12 16 15 14 15 14 14 14 14 12 12 11 10 10 10 10 10 10 10 10 10 9 8 5 6 4 5 6 8 8 9 9 9 9 11 11 12 12 16 17 15 12 9 11 14
8 9 10 11 16 14 13 12 13 14 14 13 13 13 13 14 14 15 15 15 16 17 17 16 14 13 12 12 13 13 12 12 12 12 12 12 12 12 12 11 10 14 14 14 14 14 14 13 13 12 10 10 10 8 8 10 10 9 10 10 9 8 6 6 13 5 5 8 8 8 9 9 9 9 11 13 13 13 14 12 11 9 12 13 12
8 9 10 11 15 14 12 12 14 14 13 13 13 13 14 14 15 15 15 16 15 15 16 16 14 13 12 12 13 13 12 12 12 12 12 12 12 11 10 10 9 15 13 13 13 14 13 13 12 11 10 9 9 8 8 9 10 9 9 9 9 6 4 8 4 4 5 8 8 7 8 9 9 10 12 12 13 13 11 10 11 12 12 13 11
8 8 10 11 13 14 12 13 13 13 13 12 12 13 13 14 14 15 14 15 14 14 14 15 15 13 11 12 12 12 13 12 12 12 11 11 11 12 11 11 13 15 12 12 12 13 12 11 10 9 8 8 8 8 8 9 9 9 9 9 8 6 4 10 1 4 6 7 6 8 8 8 9 10 11 10 11 11 11 11 12 12 10 12 11
9 8 10 11 10 15 13 13 13 12 11 11 12 12 13 14 14 14 14 13 13 14 14 14 13 13 12 12 12 11 11 13 12 11 11 11 10 9 10 11 13 14 14 13 12 11 11 10 9 8 7 7 7 9 9 9 9 9 9 9 8 5 7 6 6 5 6 6 5 8 7 6 9 11 10 9 11 11 10 10 10 10 9 9 11
11 10 10 10 11 11 15 13 12 12 11 11 11 11 12 12 13 11 13 13 13 13 13 13 12 12 11 12 11 12 12 13 13 12 12 11 10 10 11 12 11 13 13 12 11 10 9 8 8 7 6 5 5 8 10 9 9 9 9 9 7 7 11 1 3 6 5 5 6 7 6 8 10 10 10 10 10 10 14 13 11 10 9 10 10
11 10 9 10 11 11 9 12 14 13 11 11 12 11 10 11 13 13 14 13 13 12 12 12 12 11 11 11 10 11 13 13 13 13 12 11 10 11 11 11 12 12 12 11 10 9 8 7 7 6 5 5 5 8 9 9 9 9 9 8 6 4 7 12 5 4 4 4 6 8 7 8 10 9 11 11 10 8 9 9 9 10 11 10 10
10 9 8 10 11 11 10 9 11 14 13 12 12 14 10 10 12 14 13 13 13 13 12 11 12 12 12 11 11 10 12 13 14 13 13 11 11 10 10 9 10 11 11 10 9 9 8 7 7 6 4 4 7 8 10 9 9 9 9 7 5 3 8 12 5 3 4 4 4 5 7 8 9 8 10 10 9 10 7 8 9 8 10 10 9
9 8 9 8 8 8 6 7 11 11 11 11 11 12 14 12 13 11 13 13 13 13 13 13 12 12 11 11 12 12 12 13 14 13 13 12 12 11 10 10 10 11 11 10 9 8 7 7 8 7 5 5 8 10 10 9 9 9 8 7 6 3 6 11 4 4 4 2 4 6 7 11 8 8 10 8 7 9 9 6 7 9 9 9 10
7 7 9 7 5 7 6 3 9 10 11 9 9 10 12 13 14 13 13 13 13 13 13 13 12 12 12 12 12 12 12 13 14 14 13 13 13 12 11 10 12 12 11 10 8 7 7 8 8 8 7 8 10 10 9 9 8 8 8 7 7 5 6 9 4 4 4 3 4 5 7 10 5 9 11 8 7 9 10 8 6 7 7 7 8
6 4 8 6 5 7 6 9 8 9 8 9 9 10 11 12 13 13 13 13 12 12 12 12 12 12 12 12 12 11 13 12 14 13 14 13 12 11 11 10 11 12 11 10 8 7 8 8 8 7 8 9 10 9 9 9 8 8 8 8 8 9 7 2 3 3 2 4 4 6 10 8 6 7 10 7 8 6 6 5 6 11 8 8 8
3 3 5 8 9 9 10 7 7 8 8 8 8 9 6 11 11 12 12 12 12 12 12 12 12 11 10 10 11 8 9 9 10 10 13 10 13 13 12 11 10 11 11 10 8 7 8 8 7 7 7 9 8 9 9 9 9 8 8 8 9 8 5 2 3 2 3 4 3 7 9 8 7 6 5 9 7 7 7 6 4 5 6 7 7
6 6 5 5 6 8 7 7 7 7 8 10 5 7 7 8 10 10 9 10 11 11 10 9 10 9 9 8 6 7 6 8 8 10 8 12 12 13 12 12 11 12 12 10 8 8 8 8 7 6 7 8 12 7 7 8 8 8 8 7 8 4 2 4 1 3 3 3 5 9 8 7 7 5 5 6 6 6 5 7 5 4 5 5 5
7 6 5 6 4 4 5 6 7 6 6 8 9 5 8 8 9 8 7 8 9 9 7 8 7 7 6 5 5 4 4 6 6 7 8 11 13 13 13 12 11 11 12 11 9 7 8 8 6 6 7 10 8 3 5 5 6 8 7 6 1 3 5 2 3 3 2 3 7 11 7 6 6 6 6 6 8 7 4 4 7 5 3 5 5
6 5 5 4 4 1 4 6 6 6 5 4 9 7 7 7 7 7 6 5 5 5 6 5 5 6 5 4 4 4 5 5 9 12 13 10 11 14 14 13 12 10 13 10 9 7 7 6 5 6 9 6 3 3 3 4 5 6 4 2 4 3 2 2 3 3 4 2 8 11 6 6 5 6 6 7 7 5 6 5 4 5 4 3 6
5 5 5 5 4 1 1 4 4 5 4 4 4 5 5 5 5 6 6 5 5 5 5 5 5 5 5 4 5 3 5 5 7 7 6 7 8 8 9 7 8 9 11 8 7 8 8 7 6 7 2 2 3 3 2 4 2 3 3 2 3 3 2 2 2 2 3 3 9 10 5 6 6 5 6 6 6 7 6 6 4 4 4 3 4
4 5 5 4 4 2 5 1 5 5 4 4 4 5 5 5 5 4 5 5 5 5 5 5 5 5 4 4 4 4 4 5 6 5 6 6 6 6 5 5 6 8 7 7 7 7 6 5 4 3 1 2 3 3 3 2 3 2 2 2 2 2 2 2 3 1 3 3 10 7 6 7 6 6 6 7 9 7 5 6 4 4 5 5 4
3 4 5 4 3 3 5 3 7 5 6 4 4 4 4 5 5 5 5 5 5 6 5 5 5 5 5 5 4 4 5 5 5 5 5 5 5 5 5 5 6 6 7 7 7 7 5 4 3 2 1 1 3 3 3 3 2 4 3 3 2 2 2 3 2 3 3 3 10 8 5 7 6 6 5 5 5 6 6 5 4 5 5 6 4
4 4 3 3 3 5 5 3 5 5 6 6 5 4 5 6 6 5 4 4 5 5 5 5 6 6 5 5 4 4 4 5 5 5 4 5 5 5 5 6 5 5 5 5 7 6 6 5 4 4 3 1 2 2 2 4 2 2 3 2 3 2 2 3 4 3 3 2 9 10 8 6 6 5 4 6 6 4 6 6 7 4 6 6 6
2 3 4 4 5 5 6 6 6 8 5 5 5 4 5 5 6 6 5 6 5 5 5 6 5 5 5 5 5 5 4 4 5 5 4 4 5 5 5 5 6 6 5 4 6 6 5 5 4 4 3 2 1 1 1 3 2 2 2 3 3 3 3 2 3 3 3 2 2 11 11 8 5 5 4 6 6 8 7 5 5 7 7 6 6
5 4 5 5 6 6 8 9 10 9 5 5 5 5 6 7 6 6 6 6 4 5 5 5 4 4 4 3 4 4 4 4 4 4 5 4 4 5 4 5 5 6 6 5 4 5 5 4 4 4 2 2 1 2 1 2 2 2 2 3 2 2 2 2 2 3 4 2 2 8 12 9 8 7 6 6 7 6 7 7 5 7 6 8 6
9 8 7 6 7 7 7 8 7 6 5 6 5 6 6 5 6 6 6 5 5 5 4 4 4 4 3 3 3 4 4 5 5 4 5 5 5 5 5 5 6 6 5 5 4 4 3 3 2 0 1 1 0 0 1 1 1 3 3 3 3 2 2 1 2 2 3 3 3 3 11 12 10 8 8 9 7 7 9 9 7 8 8 8 8
9 9 7 6 5 5 5 4 4 5 6 5 5 6 6 5 5 5 5 5 6 5 4 4 4 3 3 3 2 3 3 4 4 5 5 5 6 6 5 5 5 5 5 5 4 2 3 2 2 3 3 2 1 2 1 1 2 3 4 4 4 3 2 2 2 2 1 2 2 2 3 8 12 11 10 9 9 9 6 7 9 8 10 10 10
6 6 5 6 4 3 2 4 2 4 7 5 5 5 5 5 5 5 5 5 5 4 4 4 4 4 3 3 3 2 3 4 4 4 5 5 5 5 5 4 4 4 4 3 4 4 2 2 3 3 3 2 2 2 2 2 2 3 2 4 2 2 2 2 2 2 2 2 2 2 3 4 7 14 13 12 11 10 9 8 9 10 10 12 11
5 4 5 5 2 1 2 3 5 2 5 7 6 6 6 5 4 5 5 5 4 4 3 3 3 3 3 3 3 3 3 3 5 5 4 5 5 5 5 5 4 3 3 2 3 3 3 2 1 2 2 3 4 3 3 3 3 3 3 2 2 1 2 2 2 2 2 2 2 2 3 3 4 6 10 14 13 12 11 10 10 10 10 8 11
6 4 3 4 4 3 3 3 2 4 5 5 6 7 10 4 3 4 4 4 4 4 4 4 4 3 4 4 4 3 3 3 3 4 4 4 5 5 4 5 4 4 3 3 3 3 2 2 2 3 2 2 3 3 2 1 2 3 2 2 1 2 1 2 1 2 2 2 2 3 3 3 2 3 4 8 14 14 13 12 12 11 11 10 11
10 10 9 6 4 7 8 8 5 5 5 5 4 7 10 6 3 2 3 4 4 4 4 4 4 4 4 4 4 4 3 3 3 4 3 4 5 5 5 4 5 4 2 3 3 3 2 2 3 2 1 2 5 5 4 3 2 2 1 2 1 1 1 2 2 2 3 3 3 3 3 3 3 3 2 2 5 11 16 14 13 13 12 12 12
10 10 9 8 7 5 4 6 6 5 7 7 7 8 9 7 6 4 4 4 4 4 4 4 3 3 3 3 4 4 4 3 3 3 3 3 3 4 5 5 5 4 4 3 4 3 3 2 2 2 2 1 9 4 3 2 2 3 3 3 2 2 3 2 2 2 3 3 3 4 4 3 4 4 4 4 3 4 15 15 15 14 14 13 13
9 10 10 8 7 4 5 5 7 8 8 8 6 5 6 7 5 6 4 3 4 3 3 4 4 3 3 3 4 4 3 3 3 3 3 2 2 3 3 5 6 4 4 4 4 3 3 3 5 1 2 4 7 1 2 1 1 1 2 2 2 3 3 3 3 3 3 4 4 4 4 4 4 4 4 4 4 4 5 13 15 15 14 14 14
8 10 10 10 8 8 7 8 8 8 7 8 6 5 5 3 7 4 4 4 3 3 3 3 3 3 3 3 4 4 4 4 3 4 3 3 2 2 3 3 5 4 4 4 4 4 3 3 3 6 7 8 3 2 1 1 2 2 3 3 4 4 4 4 4 4 4 4 4 3 5 5 4 5 6 5 4 4 4 5 8 9 11 17 15
9 8 10 9 10 11 10 9 9 8 8 7 7 6 3 2 6 3 4 4 3 3 3 3 3 3 3 3 4 4 4 4 4 4 3 3 3 2 2 2 4 5 5 5 5 4 4 3 3 3 2 2 2 2 2 3 3 4 4 4 6 5 6 5 5 5 5 4 5 5 5 4 5 5 6 6 5 6 6 6 6 6 6 13 16
10 10 10 11 11 10 11 11 9 9 8 8 8 5 3 4 9 6 4 4 4 3 3 3 3 3 3 4 4 4 4 4 4 4 3 3 3 2 2 2 3 4 4 5 4 3 2 2 2 2 2 2 3 3 1 3 3 3 3 5 5 6 6 6 6 6 6 5 5 5 4 4 4 5 5 5 5 6 6 6 6 6 6 4 11
8 9 11 11 11 11 11 9 8 9 9 8 7 6 7 8 5 4 4 4 5 5 4 4 4 3 4 3 4 4 4 4 4 4 3 3 3 2 2 3 3 3 3 4 4 3 3 3 3 3 2 2 2 1 0 4 4 3 3 3 4 5 4 5 5 5 5 5 5 5 5 5 6 5 5 4 5 6 6 6 6 6 6 6 6
8 9 10 11 10 10 9 9 9 9 9 9 8 8 7 6 5 3 4 3 3 3 4 4 4 4 4 4 4 4 4 4 4 4 3 3 3 2 2 2 3 3 4 4 4 5 4 4 4 3 3 3 2 1 2 3 3 2 3 4 4 4 3 5 3 3 4 4 4 5 5 6 7 5 4 4 5 5 6 5 6 6 6 6 5
8 9 10 11 9 9 9 10 9 10 9 10 9 7 6 5 4 3 4 4 4 4 3 4 5 5 5 5 5 4 4 4 4 4 4 3 3 3 3 3 3 3 3 3 4 5 4 4 4 3 3 4 4 3 2 3 4 4 4 5 5 4 1 4 3 1 1 1 3 4 5 4 4 3 4 5 5 5 4 5 6 5 6 5 6
8 9 10 10 9 10 10 10 9 10 8 8 9 7 6 6 5 5 4 4 3 5 6 6 6 6 5 6 5 4 4 4 4 4 4 4 3 3 3 3 3 3 3 3 3 3 4 4 4 4 4 4 4 3 3 3 5 3 6 4 4 5 1 3 6 1 2 2 2 2 2 2 2 3 4 5 5 5 5 5 5 5 6 6 6
9 9 9 10 10 9 10 10 9 9 9 10 10 9 8 7 7 6 7 6 6 6 7 7 7 6 6 5 5 5 5 4 4 4 4 4 4 4 3 3 3 3 3 2 2 2 3 4 4 4 5 5 5 3 4 4 4 4 5 6 3 4 1 2 4 2 3 3 2 2 1 2 3 3 3 4 5 6 5 6 6 7 6 6 6
10 9 9 9 10 9 9 10 9 9 9 10 10 9 9 9 9 8 6 6 6 5 5 5 5 5 4 5 5 5 5 5 5 5 5 5 5 4 4 4 4 3 3 3 3 3 3 4 3 4 4 4 4 5 5 5 4 5 5 5 5 4 4 4 4 4 5 3 3 2 3 2 1 4 3 6 5 5 4 4 5 6 6 6 6
10 9 9 9 11 11 10 11 9 9 9 9 11 10 9 10 10 8 7 7 6 5 6 5 4 4 5 5 4 5 5 5 5 6 6 6 6 6 5 5 5 5 4 4 4 3 3 2 3 3 4 4 5 6 6 5 5 4 3 5 5 5 6 5 6 6 6 7 2 2 9 4 4 2 4 4 5 3 3 4 6 6 6 7 6
11 11 11 10 10 10 10 10 11 10 10 11 11 11 10 10 9 8 8 7 7 6 6 6 6 5 5 5 5 5 5 6 6 7 7 7 7 6 6 6 6 6 6 5 5 5 5 3 3 4 4 4 4 4 5 6 5 6 5 6 6 6 5 5 5 5 6 6 6 3 6 4 5 4 4 5 5 5 4 4 4 5 5 5 6
11 11 10 9 9 10 11 11 12 11 10 12 11 12 12 10 10 9 10 9 8 7 7 7 6 6 7 6 6 6 6 6 7 7 8 8 8 7 7 7 6 6 5 6 5 5 5 5 5 5 4 4 4 4 5 5 5 5 6 5 5 5 6 5 5 6 7 7 7 6 5 5 5 2 3 4 6 6 5 4 4 5 5 5 6
10 11 10 10 10 11 11 12 12 10 11 12 12 12 12 11 10 11 11 10 10 9 8 8 7 7 7 8 7 7 6 6 6 6 7 8 8 8 7 7 6 6 6 6 6 6 6 6 6 6 6 6 5 5 5 5 6 6 6 6 6 6 6 6 5 5 5 6 6 7 6 5 5 5 5 4 4 6 6 4 5 5 4 4 4
Wind_Direction
116 119 129 136 154 143 134 134 124 122 121 123 123 123 122 123 120 117 117 114 114 116 116 117 116 116 117 121 121 119 121 119 113 114 111 111 111 112 111 110 110 107 107 104 103 100 101 105 103 98 99 102 96 98 99 100 98 97 97 97 96 94 96 93 87 86 86 83 81 81 76 74 71 74 76 74 67 62 58 69 90 79 77 77 74
130 130 133 140 164 141 134 131 125 126 124 123 122 120 121 124 119 116 116 117 117 118 120 117 116 118 121 123 119 114 111 116 114 112 113 113 113 114 116 113 110 108 106 102 103 106 107 108 106 105 106 98 101 98 99 101 101 102 99 97 98 100 98 94 93 91 92 91 88 85 81 74 74 76 76 74 73 72 66 53 59 79 77 79 78
119 133 136 137 154 135 134 129 128 127 129 124 121 119 118 119 119 118 120 120 122 121 117 116 118 119 117 114 115 110 113 111 110 110 111 108 105 107 108 111 107 102 103 110 113 114 114 111 112 106 101 104 99 97 99 102 103 105 105 105 104 101 97 96 97 101 102 102 98 96 89 78 74 75 75 75 75 71 63 66 72 81 82 82 81
131 131 138 144 155 133 133 131 130 130 129 128 124 122 123 122 124 126 127 126 123 119 117 119 117 116 116 117 115 116 116 113 113 111 107 107 107 107 108 107 107 110 117 118 119 114 111 108 104 106 106 103 103 101 103 106 106 98 98 102 96 96 96 98 101 104 110 123 128 106 91 91 84 78 78 78 81 78 73 72 73 74 79 80 86
132 133 137 143 142 132 133 132 133 133 132 131 129 127 125 126 127 130 129 127 123 121 116 114 120 121 118 115 115 116 116 114 109 106 105 107 109 111 111 111 117 124 120 114 116 115 107 106 108 108 107 105 103 103 103 101 101 104 106 105 102 102 103 104 107 112 109 112 118 110 97 92 83 78 81 88 81 74 80 87 77 75 84 80 81
135 135 139 146 141 134 133 134 134 134 133 131 130 129 129 128 129 133 133 131 129 123 120 121 123 121 119 114 116 114 110 108 107 106 107 110 114 115 118 122 122 119 119 124 111 107 109 110 109 108 107 105 102 103 104 105 104 106 106 105 107 109 108 114 114 111 112 115 108 81 88 88 89 89 77 80 80 77 74 73 81 90 84 84 87
136 137 148 146 136 132 135 134 134 134 133 130 128 127 129 132 133 134 134 133 133 131 128 125 123 126 123 120 117 114 110 111 110 111 114 118 120 120 122 122 120 121 123 109 115 114 111 111 112 109 107 105 104 102 102 102 104 104 105 105 107 112 116 117 123 136 165 173 83 92 89 85 91 91 77 82 83 85 78 74 77 71 77 77 83
136 142 137 133 133 134 137 137 137 135 133 130 127 128 129 132 133 134 133 134 133 132 130 128 130 126 122 119 117 115 114 115 115 114 113 116 122 123 125 121 118 123 105 111 112 113 114 112 112 108 105 105 105 105 105 102 105 106 109 112 115 117 118 119 126 142 251 92 107 82 81 83 86 93 80 66 77 82 86 83 79 77 78 82 94
142 138 134 130 130 132 137 139 138 136 131 128 129 130 132 132 132 132 133 132 130 129 130 130 128 123 125 124 121 118 116 114 113 113 115 117 121 123 123 118 122 111 110 112 112 113 110 109 109 108 108 105 104 106 106 109 107 112 114 117 115 113 119 123 134 171 124 99 99 98 98 101 98 95 94 89 82 71 83 102 110 108 95 98 93
139 134 132 135 134 132 137 140 137 133 130 130 131 133 134 132 130 131 132 133 132 130 124 125 128 129 131 132 126 121 119 117 113 114 115 119 122 120 117 117 122 113 111 110 113 115 111 108 107 109 111 109 105 106 108 112 115 113 115 116 117 118 121 167 210 256 88 91 68 63 47 65 81 81 89 87 80 77 66 54 41 52 81 89 85
142 137 135 135 128 133 137 138 137 133 129 131 134 135 133 132 130 132 134 134 134 133 132 133 131 130 130 130 123 122 121 116 113 113 115 119 123 123 120 121 118 107 105 107 109 109 108 107 105 107 110 114 115 114 114 116 118 115 117 116 121 127 163 193 233 81 75 88 95 96 91 89 92 89 100 97 93 83 78 77 93 94 104 97 89
144 138 131 127 124 132 139 139 136 132 129 132 135 136 134 131 131 133 136 134 130 127 129 127 127 127 126 126 124 123 117 111 108 110 116 122 125 125 125 127 131 102 109 107 106 105 102 100 100 99 104 120 129 126 127 126 122 120 119 124 120 138 203 240 268 92 99 101 102 102 97 97 93 100 103 104 103 99 97 99 111 115 89 87 88
143 129 126 132 135 133 137 138 131 128 128 132 135 135 134 132 132 133 132 130 128 127 125 125 124 123 123 127 123 119 117 111 109 110 113 119 122 126 129 128 106 110 109 104 101 100 99 95 100 104 110 125 137 143 135 135 130 126 125 124 130 134 251 280 100 58 77 89 102 95 90 84 87 104 101 96 92 86 92 105 98 93 98 90 89
135 135 138 136 132 137 135 129 125 125 126 127 132 135 134 131 131 131 126 125 124 123 124 123 122 122 124 125 125 121 111 113 111 108 108 112 111 111 116 115 106 103 101 103 99 95 97 99 101 105 114 119 144 152 151 143 139 134 132 128 131 171 225 242 96 111 105 110 86 82 84 98 96 107 107 91 97 107 109 91 76 84 87 101 98
136 140 139 135 139 139 129 127 126 124 119 120 121 132 131 130 126 125 122 123 121 120 121 121 120 121 125 130 126 122 124 114 112 108 105 104 111 106 111 103 102 111 110 106 101 96 96 97 95 100 106 120 141 161 154 149 144 137 137 135 136 204 238 332 123 94 90 88 101 97 101 93 100 109 103 102 92 87 101 103 98 97 88 76 91
133 134 138 139 134 125 141 128 126 124 123 123 125 122 120 126 121 123 120 119 120 118 119 124 128 130 127 125 127 126 118 113 111 108 103 105 111 114 115 114 105 111 110 106 101 100 94 86 82 81 94 123 146 155 156 151 143 142 139 140 154 229 262 293 90 90 92 85 88 106 99 97 112 109 104 103 100 95 90 95 97 100 98 99 92
128 132 134 138 138 147 131 145 126 127 129 129 127 124 127 117 123 124 121 121 121 123 120 122 121 126 129 130 126 124 119 114 112 109 108 108 110 112 113 113 121 119 113 107 103 99 90 82 77 73 79 134 146 152 156 152 144 139 141 145 152 149 296 304 109 105 80 83 100 114 116 120 122 119 113 117 116 109 95 87 106 100 104 107 91
126 128 133 98 98 102 117 131 145 145 138 135 129 127 129 131 120 122 121 121 121 123 126 125 129 130 131 134 131 126 120 116 115 113 113 112 112 112 115 120 127 122 119 108 104 101 95 84 76 67 70 124 147 149 152 153 143 137 138 141 140 122 274 284 101 102 94 102 101 79 87 98 123 111 116 108 104 111 108 100 75 91 92 98 96
112 119 113 122 114 106 129 212 163 147 145 145 143 132 129 127 127 126 124 127 128 129 130 130 132 132 132 133 133 130 126 122 121 120 118 115 112 113 115 124 120 124 116 108 111 106 95 87 80 76 82 112 135 141 142 137 141 131 132 133 129 180 243 264 97 103 121 140 93 89 101 110 116 117 114 101 91 120 119 130 144 96 97 106 105
95 99 120 140 153 140 159 206 157 143 144 149 136 127 126 127 127 127 127 129 132 132 131 131 130 133 134 139 140 140 138 133 130 127 123 124 115 107 115 118 126 122 116 116 120 113 101 90 83 89 101 114 125 131 132 136 134 132 135 130 164 194 219 92 95 99 121 75 82 106 111 122 118 124 126 117 108 114 113 113 121 123 122 111 108
117 126 124 153 168 160 187 162 146 147 146 101 111 118 133 135 130 127 128 130 135 138 134 135 136 133 141 140 150 154 143 137 143 130 136 119 113 115 114 118 124 125 124 124 127 116 102 95 92 98 119 122 123 132 132 135 137 140 132 170 180 216 57 110 104 114 98 134 133 107 122 124 121 106 121 125 126 123 123 118 103 107 100 109 111
146 140 131 125 145 152 146 144 140 156 139 132 154 133 162 166 135 136 138 139 142 147 155 149 148 138 147 159 151 153 156 142 142 136 124 126 119 115 115 117 124 133 128 131 127 119 108 102 108 112 120 146 158 153 145 138 142 147 154 180 218 69 111 70 84 111 119 117 119 112 128 136 133 129 136 137 124 128 128 139 136 132 102 83 82
141 135 129 125 122 126 158 141 148 145 159 148 133 158 181 155 138 133 136 145 149 156 151 149 147 149 144 135 146 142 141 129 133 129 122 114 119 119 118 119 126 134 133 131 134 121 111 110 116 141 156 177 201 128 132 142 145 146 164 212 117 62 67 108 134 122 124 80 111 118 131 137 132 143 136 143 139 138 123 138 150 123 122 151 133
133 124 128 129 106 210 154 145 138 148 165 146 142 176 176 139 136 133 134 139 154 151 146 154 145 137 136 137 125 129 135 127 115 128 133 131 124 125 122 120 123 135 136 138 136 127 121 123 154 181 194 189 123 138 117 123 139 166 158 167 72 96 127 140 133 120 91 192 104 120 140 140 144 143 148 146 151 133 132 145 143 151 134 152 131
122 112 126 130 121 90 117 123 151 149 155 142 138 139 135 145 127 134 141 150 155 154 148 143 134 136 139 154 129 150 150 144 148 153 147 138 132 133 147 136 141 140 164 148 159 149 182 160 165 214 118 115 89 77 98 103 129 124 116 118 123 108 119 101 62 106 139 114 102 121 165 145 148 166 152 161 149 150 152 147 148 144 132 163 133
111 138 131 129 128 101 103 111 291 173 155 159 155 140 147 125 129 136 146 148 153 157 150 146 138 144 149 149 124 158 164 150 152 154 149 141 141 132 129 126 135 145 175 159 165 173 189 170 194 151 151 98 92 68 84 110 126 108 125 105 117 131 67 52 103 100 106 147 113 128 171 147 161 174 156 177 170 170 153 152 165 144 168 166 173
152 138 135 120 136 126 138 184 181 214 168 167 163 162 147 141 147 154 152 145 156 155 150 143 135 138 126 122 157 159 160 154 148 152 143 149 138 147 127 129 135 144 170 170 168 179 185 179 176 190 170 122 65 103 115 84 65 121 128 141 137 140 138 141 124 131 115 106 123 154 189 173 174 192 172 163 193 179 166 167 182 173 179 178 174
126 118 98 126 174 160 121 100 283 186 183 171 172 160 161 159 148 150 165 148 164 158 145 138 138 136 134 136 142 148 157 156 155 155 148 156 151 141 136 131 126 139 157 168 172 182 189 188 182 188 194 127 138 125 94 110 105 97 123 156 159 155 163 121 114 81 121 110 136 158 178 191 183 195 188 200 174 222 176 191 196 177 172 190 180
78 122 152 173 212 176 146 161 177 244 182 179 175 170 178 171 159 162 157 165 172 154 143 145 147 138 140 142 145 140 160 156 155 155 156 154 149 145 149 132 134 128 153 169 178 182 190 200 190 192 181 161 188 151 152 100 126 137 157 160 178 153 152 139 118 120 88 94 112 143 162 188 195 200 226 208 185 216 174 220 204 166 182 204 180
188 201 180 200 212 196 180 184 188 218 204 187 182 184 190 181 171 164 155 170 164 153 154 148 136 143 145 144 144 150 144 146 158 160 160 152 143 146 143 139 123 130 150 158 173 186 194 198 204 224 170 169 205 150 203 151 157 162 185 141 139 180 142 146 148 141 122 119 83 134 161 182 200 197 218 225 209 207 182 210 200 175 190 201 203
177 201 195 197 206 207 198 208 210 233 230 196 199 203 200 191 170 163 160 169 158 164 172 155 142 150 133 143 151 144 159 152 158 175 154 160 151 157 156 142 140 135 145 145 171 183 199 200 241 270 261 243 243 127 241 177 163 201 154 156 183 162 180 156 146 152 145 146 146 185 156 179 197 205 209 220 234 210 213 201 203 194 194 204 208
181 199 190 194 196 220 222 225 232 245 250 229 209 217 210 195 178 170 166 159 165 181 177 159 149 138 140 152 159 155 174 148 165 170 165 164 158 156 152 152 140 149 149 142 155 157 201 190 194 203 241 257 255 264 234 229 200 193 165 177 182 178 189 168 165 163 169 146 154 176 149 173 186 204 208 216 228 235 244 213 207 206 207 206 209
178 197 202 199 194 195 293 298 276 251 253 261 253 243 229 207 187 177 169 157 180 183 176 164 158 139 155 174 156 167 179 151 169 184 162 170 150 154 155 149 150 139 132 129 132 166 183 194 207 235 239 238 242 222 241 213 194 209 199 157 186 190 189 202 177 185 183 181 186 182 191 175 179 194 203 208 216 228 233 231 217 214 219 209 211
175 191 213 220 206 171 198 229 263 235 283 286 289 275 245 220 193 179 165 167 172 182 176 169 153 153 163 169 172 183 182 168 167 167 190 161 160 173 157 160 145 145 129 152 169 175 195 203 255 233 207 241 211 191 208 192 179 189 212 185 175 181 185 199 212 182 202 211 202 202 208 186 182 174 190 198 209 215 223 230 234 226 230 238 215
180 178 218 213 183 177 213 220 215 298 293 295 285 278 277 249 206 190 163 179 166 189 175 169 173 173 173 167 185 181 190 173 172 165 188 173 169 172 170 165 156 166 156 169 201 188 197 227 216 248 230 239 235 190 224 164 167 202 180 215 212 192 181 217 204 234 186 207 213 211 205 222 192 197 179 177 197 207 212 220 228 233 233 229 238
182 172 187 202 219 203 191 199 207 207 226 251 264 271 261 256 234 183 182 181 187 192 176 186 182 171 179 168 175 174 181 181 184 180 179 195 182 174 184 155 158 171 165 197 233 210 193 213 210 236 254 253 286 192 194 179 193 228 175 220 203 251 236 225 209 202 222 207 207 201 211 206 201 209 210 211 173 189 201 209 219 228 233 234 240
191 185 184 173 186 211 208 181 193 217 232 223 217 236 263 255 231 184 203 186 195 198 184 181 186 190 175 177 169 174 183 181 192 192 206 211 198 193 174 160 192 183 192 197 228 238 203 161 269 168 242 253 251 223 169 174 205 215 212 234 235 246 257 248 228 220 218 220 210 207 211 211 208 216 223 224 213 180 184 201 210 220 225 232 234
199 200 195 180 175 193 213 192 200 208 214 231 232 211 236 246 247 211 201 205 195 202 193 188 182 189 190 189 174 171 190 182 192 194 210 221 219 212 190 174 202 195 208 212 219 230 229 226 160 225 258 274 284 330 314 196 264 281 259 229 253 263 257 246 244 237 235 220 214 220 212 212 205 223 221 217 224 210 188 188 201 210 220 225 227
208 210 205 184 169 193 202 212 215 217 207 212 231 245 237 265 257 231 205 211 197 189 196 196 189 188 195 193 188 182 182 194 195 207 195 218 215 215 234 197 220 206 212 224 224 219 227 207 237 174 182 228 195 270 354 347 259 262 265 266 258 237 247 252 252 240 232 239 234 228 227 207 211 208 216 223 229 232 222 212 194 208 210 214 222
200 207 206 195 196 190 189 203 208 215 210 202 213 233 220 180 243 256 228 214 207 181 189 195 186 196 201 198 193 195 183 187 202 204 213 206 221 220 206 226 232 226 213 224 232 214 197 211 212 235 217 230 220 226 195 218 230 248 259 270 261 260 251 249 240 245 245 232 230 228 232 219 216 221 221 215 222 217 226 227 234 228 231 195 205
200 202 202 204 200 194 196 202 203 205 205 206 204 198 186 201 232 206 211 193 205 190 187 197 192 191 213 197 193 192 197 190 203 203 210 199 233 221 203 223 228 237 227 227 234 239 222 222 213 218 232 230 235 185 196 287 272 247 237 252 252 244 243 236 238 240 239 235 226 229 234 243 237 225 229 224 222 224 221 226 232 237 228 228 193
201 203 205 202 203 203 202 202 198 204 208 204 207 200 200 219 224 214 218 203 191 194 188 189 196 185 188 198 190 192 193 193 202 209 207 218 227 227 222 219 225 232 239 237 226 214 212 217 226 217 212 240 227 221 30 277 233 276 295 272 267 235 220 229 239 230 245 237 239 238 239 237 233 221 224 229 231 229 233 225 232 232 237 226 226
207 207 209 206 204 201 206 202 202 202 204 205 208 205 208 215 217 221 218 205 203 201 195 177 178 186 172 183 181 181 189 196 196 200 207 215 232 252 245 236 230 232 223 220 213 212 218 219 220 249 213 194 239 163 216 261 282 250 258 291 323 252 55 318 211 218 228 244 247 241 232 239 239 234 215 222 238 234 238 233 226 228 230 238 237
200 199 206 209 208 208 204 207 203 203 201 204 205 205 201 202 216 232 214 228 190 172 181 170 179 179 175 186 183 177 187 199 194 199 207 207 218 236 229 222 222 225 242 227 215 218 208 216 213 230 255 244 211 168 181 239 271 262 218 221 228 275 153 255 250 219 75 224 237 239 215 220 263 239 237 234 241 246 241 235 239 230 235 241 241
199 199 202 205 209 209 209 207 205 204 201 204 204 196 192 192 196 205 199 185 178 179 184 184 186 182 183 179 184 177 181 193 192 213 212 196 212 221 223 213 215 217 226 232 226 225 217 217 217 230 236 261 231 180 209 225 243 247 290 269 240 225 111 256 323 254 180 182 203 209 121 271 206 216 226 237 251 248 240 233 239 241 232 234 238
200 201 200 204 206 208 209 208 208 205 202 200 202 195 193 191 188 193 195 187 188 187 191 188 182 183 190 174 177 180 187 190 196 203 213 213 200 217 223 220 201 204 211 225 220 202 226 229 213 225 230 232 273 228 220 219 252 246 263 280 315 310 301 261 281 234 199 230 221 243 183 204 187 190 216 240 216 233 233 238 221 229 234 235 244
203 199 198 201 204 208 209 209 210 207 202 203 199 197 197 199 196 202 201 197 193 189 198 186 188 182 180 176 180 185 197 193 208 205 208 209 212 217 218 226 220 212 206 222 218 222 222 217 207 217 237 233 227 252 248 245 215 242 246 261 287 271 281 286 286 312 270 116 262 294 254 257 314 260 227 215 216 216 222 249 251 246 232 228 233
198 193 196 198 202 206 207 210 210 210 204 201 199 198 206 206 201 200 203 200 201 191 187 189 189 187 189 187 190 192 202 207 205 216 211 208 212 211 211 216 218 212 213 217 223 221 235 221 220 235 231 241 233 246 254 253 254 257 216 259 244 259 270 273 266 289 301 301 274 2 313 240 236 258 273 294 285 286 234 237 248 235 228 233 235
195 192 193 194 197 204 207 207 209 208 207 204 204 203 211 210 203 197 199 199 193 194 193 198 191 190 195 188 203 202 204 211 212 209 214 215 205 208 209 207 206 210 211 218 216 219 228 235 217 226 237 234 240 247 255 257 255 255 238 234 245 251 243 232 257 257 275 279 277 234 221 165 247 226 254 275 282 262 250 245 256 274 260 226 226
196 194 191 188 193 200 205 205 205 208 206 204 205 208 209 212 208 198 201 198 193 195 199 191 195 192 196 195 200 206 204 203 212 215 215 213 211 209 209 211 209 215 224 238 241 226 225 233 231 233 227 239 234 233 239 254 255 262 258 267 258 248 254 254 239 250 246 253 273 285 289 285 275 227 229 260 268 272 256 230 230 244 254 248 224
192 192 188 186 192 199 200 202 204 205 209 206 205 209 208 210 211 204 204 201 191 191 190 190 190 192 202 199 199 201 202 206 203 209 212 216 209 211 214 211 214 217 222 230 234 236 224 219 225 225 230 235 240 232 234 242 250 248 246 244 248 249 257 257 253 243 249 257 259 263 269 261 270 282 262 244 267 276 268 263 251 237 243 241 244